Regional Weather Roundup
Issued by NWS Mobile, AL

Home | Current Version | Previous Version | Text Only | Print | Product List | Glossary On
Versions: 1 2 3 4 5 6 7 8 9 10 11 12 13 14 15 16 17 18 19 20 21 22 23 24 25 26 27 28
000
ASUS44 KMOB 201612
RWRMOB
REGIONAL WEATHER ROUNDUP
NATIONAL WEATHER SERVICE MOBILE AL
1000 AM CST TUE FEB 20 2018

NOTE: "FAIR" INDICATES FEW OR NO CLOUDS BELOW 12,000 FEET WITH NO
      SIGNIFICANT WEATHER AND/OR OBSTRUCTIONS TO VISIBILITY.

  * THESE STATIONS ARE PART OF THE UNIVERSITY OF SOUTH ALABAMA
    MESONET AND ARE NOT UNDER NWS OR FAA QUALITY CONTROL.

ALZ061>064-201700-
COASTAL ALABAMA

CITY           SKY/WX    TMP DP  RH WIND       PRES   REMARKS
MOBILE REG APT PTSUNNY   78  66  66 SE20G26   30.26R
BROOKLEY FIELD FAIR      75  66  73 SE12      30.26R
USA CAMPUS*    NOT AVBL
DOG RIVER*     NOT AVBL


CITY           SKY/WX    TMP DP  RH WIND       PRES   REMARKS
GULF SHORES    FAIR      76  69  79 SE16G32   30.26R

$$

ALZ051>060-201700-
INTERIOR SOUTHWEST AND SOUTH CENTRAL ALABAMA

CITY           SKY/WX    TMP DP  RH WIND       PRES   REMARKS
GREENVILLE     NOT AVBL
EVERGREEN      FAIR      78  63  59 SE13      30.29R
ATMORE*          N/A     75  68  78 SE14      31.06R
ANDALUSIA/OPP  CLOUDY    75  65  70 SE10G17   30.30R
ANDALUSIA*       N/A     73  66  78 SE12      30.31R
FLORALA APT    NOT AVBL
FLORALA*         N/A     73  66  78 E8        31.08R

$$

FLZ001>006-201700-
WESTERN FLORIDA PANHANDLE

CITY           SKY/WX    TMP DP  RH WIND       PRES   REMARKS
PENSACOLA      PTSUNNY   75  68  78 SE16      30.27R
NAS PENSACOLA  PTSUNNY   75  68  78 SE13      30.26R
MILTON         PTSUNNY   77  67  71 SE21G26   30.27S
WHTNG S FIELD  FAIR      77  68  73 S18G25    30.27S


CITY           SKY/WX    TMP DP  RH WIND       PRES   REMARKS
JAY*           NOT AVBL
DUKE FIELD     PTSUNNY   76  66  71 SE13G18   30.29R
CRESTVIEW      PTSUNNY   76  65  68 SE8G22    30.31R
VALPARAISO     MOSUNNY   74  67  77 SE16G25   30.29R
DESTIN         FAIR      73  66  78 SE12G21   30.29R

$$

MSZ076-079-201700-
INTERIOR SOUTHEAST MISSISSIPPI

CITY           SKY/WX    TMP DP  RH WIND       PRES   REMARKS
LEAKESVILLE*     N/A     75  66  73 S10       30.26R
AGRICOLA*        N/A     75  66  73 SW2       30.23S

$$

MARINE OBSERVATIONS

STATION/POSITION TIME  TEMP    WIND        PRES    WAVE
                       AIR SEA DIR/SP/G            HT/PER
                 (UTC) (F)     (DEG/KT/KT) (MB)    (FT/S)
PETIT BOIS ISLND 1542   72     110/ 13/ 17 1024.5R
KATRINA CUT      1530          120/ 14     1024.0R
CEDAR POINT      1530   69     130/ 12     1024.4R
E DAUPHIN ISLAND 1600   70     110/ 16/ 18 1024.2R
MIDDLE BAY LIGHT 1530   71     120/ 20     1023.4R
USCG MOBILE BAY  1542   69 63  170/  3/  5 1024.4R
STATE DOCKS      1542   73 59              1024.4R
MEAHER PARK      1530   75     130/ 13     1023.7S
WEEKS BAY        1445   76                 1023.0S
FORT MORGAN      1542   71     120/ 17/ 20   N/A
12 S ORANGE BCH  NOT AVBL
PENSACOLA BAY    1542   74 69  140/  2/  7 1025.3R
64 S DAUPHIN ISL 1550      72  120/ 17/ 21 1023.2R   6/ 8
67 S FORT MORGAN 1530   73                 1023.4R

$$

SELECTED LOCATIONS ACROSS THE REGION

CITY           SKY/WX    TMP DP  RH WIND       PRES   REMARKS
NEW ORLEANS    PTSUNNY   78  71  79 SE16      30.18R
GULFPORT       CLOUDY    74  70  87 SE18G24   30.23R
PASCAGOULA AP  FAIR      77  66  68 SE16G25   30.24R
PASCAGOULA*      N/A     72  66  83 E9          N/A
HATTIESBURG    CLOUDY    75  67  76 S14G23    30.22S
LAUREL         FAIR      77  67  71 S17       30.23S
MERIDIAN       CLOUDY    73  65  75 S13G21    30.24S
JACKSON        CLOUDY    73  66  78 S14G21    30.18R
MONTGOMERY     PTSUNNY   75  65  70 SE13      30.31S
TROY           CLOUDY    72  65  78 SE15G21   30.33R
ASHFORD*         N/A     73  66  78 SE12      30.31R
DOTHAN           N/A     73  65  75 SE13      30.36S
PANAMA CITY    CLOUDY    74  68  81 SE14G20   30.30S

$$





USA.gov is the U.S. government's official web portal to all federal, state and local government web resources and services.